Regional Weather Roundup
Issued by NWS Little Rock, AR

Home | Current Version | Previous Version | Text Only | Print | Product List | Glossary Off
Versions: 1 2 3 4 5 6 7 8 9 10 11 12 13 14 15 16 17 18 19 20 21 22 23 24 25 26 27 28 29 30 31 32 33 34 35 36 37 38 39 40 41 42 43 44 45 46 47 48 49 50

788
ASUS44 KLZK 062305
RWRLZK

WEATHER ROUNDUP FOR ARKANSAS
NATIONAL WEATHER SERVICE LITTLE ROCK AR
500 PM CST TUE DEC 06 2016

NOTE: "FAIR" INDICATES FEW OR NO CLOUDS BELOW 12,000 FEET WITH NO
SIGNIFICANT WEATHER AND/OR OBSTRUCTIONS TO VISIBILITY.

ARZ001-003-010-029-070000-
NORTHWEST ARKANSAS

CITY           SKY/WX    TMP DP  RH WIND       PRES   REMARKS
FAYETTEVILLE   CLOUDY    40  31  70 N5        30.04R
FORT SMITH     PTCLDY    47  36  65 NW3       30.02R
HARRISON       CLOUDY    40  33  76 NW5       30.02R
BENTONVILLE    CLOUDY    39  21  48 N9        30.05R
ROGERS         CLOUDY    39  26  59 N6        30.05R
SILOAM SPGS    PTCLDY    39  25  56 N8        30.04R
HIGHFILL       CLOUDY    40  26  57 N10       30.04R
SPRINGDALE     MOCLDY    39  27  60 N8        30.05R
$$

ARZ004-005-016-070000-
NORTH CENTRAL ARKANSAS

CITY           SKY/WX    TMP DP  RH WIND       PRES   REMARKS
BATESVILLE     PTCLDY    46  37  71 NW8       30.02R
FLIPPIN        CLOUDY    43  32  65 CALM      30.00R
MTN HOME       MOCLDY    42  35  76 CALM      30.01R
$$

ARZ040-041-070000-
WEST CENTRAL ARKANSAS

CITY           SKY/WX    TMP DP  RH WIND       PRES   REMARKS
MENA           CLOUDY    50  45  81 CALM      30.00S
MOUNT IDA      PTCLDY    50  42  74 CALM      29.98R
$$

ARZ009-017-025-026-028-070000-
NORTHEAST ARKANSAS

CITY           SKY/WX    TMP DP  RH WIND       PRES   REMARKS
CORNING        MIX PCPN  45  39  81 NW13      30.01R
JONESBORO      CLEAR     50  40  68 NW6       29.98R
NEWPORT        CLEAR     48  41  76 MISG        N/A
WALNUT RIDGE   MOCLDY    45  36  70 NW14      30.00R
BLYTHEVILLE    CLEAR     49  43  80 NE6       29.98R
$$

ARZ022-023-033-042-044-070000-
CENTRAL ARKANSAS

CITY           SKY/WX    TMP DP  RH WIND       PRES   REMARKS
LITTLE ROCK    MOCLDY    50  41  71 NW6       30.01R
SEARCY         CLEAR     50  40  68 NW5       30.02R
HOT SPRINGS    PTCLDY    53  43  68 CALM      30.00R
RUSSELLVILLE   PTCLDY    47  38  71 NE7       30.01R
CLINTON        CLOUDY    46  39  76 NW6       30.03R
$$

ARZ036-070000-
EAST ARKANSAS

CITY           SKY/WX    TMP DP  RH WIND       PRES   REMARKS
WEST MEMPHIS   CLEAR     49  42  77 CALM      29.97S
$$

ARZ050-053-066-070-073-070000-
SOUTHWEST ARKANSAS

CITY           SKY/WX    TMP DP  RH WIND       PRES   REMARKS
ARKADELPHIA    FAIR      50  45  83 S3        30.01R
CAMDEN         CLOUDY    50  41  71 NE6       30.02R
TEXARKANA      CLOUDY    49  46  90 NE3       30.01R FOG
EL DORADO      CLOUDY    50  48  93 N3        30.01R
DE QUEEN       CLOUDY    53  43  68 E5        29.99R
$$

ARZ056-057-069-070000-
SOUTHEAST ARKANSAS

CITY           SKY/WX    TMP DP  RH WIND       PRES   REMARKS
PINE BLUFF     PTCLDY    52  42  69 CALM      30.00R
STUTTGART      CLEAR     50  39  66 NW7       30.00R
MONTICELLO     CLOUDY    51  45  79 CALM      30.02R

$$






USA.gov is the U.S. government's official web portal to all federal, state and local government web resources and services.